Terug naar catalogus

SATELIOT_2

ActiefCommunicatieSSO
NORAD 60534·PAYLOAD·🇪🇸 Spain

Gelanceerd Aug 16, 2024 vanaf Vandenberg Space Force Base

Loading…

Volgende Passages (komende 24 uur)

TLE

VersSource: Space-Track

Epoch: Sep 14, 2026, 10:09 UTC

1 60534U 24149BU  26257.42355341  .00001893  00000-0  17115-3 0  9996
2 60534  97.6760 330.7342 0001992 105.4912 254.6530 14.96627123113315

Volg SATELIOT_2 in realtime met AllMySat

Download on the App Store